CW7532 Weather Reports


Display with metric or nautical units.
time (UTC)temp
F
wind
direction
speed
MPH
gust
MPH
rain 1hr
in
rain 24hr
in
rain mn
in
humidity
%
barometer
mb
20210924211533 75 170 1.0 4.0 0.00 0.00 0.00 44 1019.4
20210924210038 75 195 2.0 4.0 0.00 0.00 0.00 43 1019.5
20210924204600 75 71 1.0 5.0 0.00 0.00 0.00 44 1019.4
20210924203051 75 347 1.0 5.0 0.00 0.00 0.00 43 1019.5
20210924201524 75 44 1.0 7.0 0.00 0.00 0.00 44 1019.5
20210924200030 75 82 1.0 3.0 0.00 0.00 0.00 43 1019.5
20210924194517 74 99 1.0 6.0 0.00 0.00 0.00 45 1019.7
20210924193038 74 30 1.0 5.0 0.00 0.00 0.00 46 1020.0
20210924191537 74 42 2.0 4.0 0.00 0.00 0.00 46 1020.3
20210924190022 73 68 0.0 4.0 0.00 0.00 0.00 48 1020.5
20210924184513 73 32 3.0 7.0 0.00 0.00 0.00 46 1020.8
20210924183008 74 102 1.0 5.0 0.00 0.00 0.00 49 1020.9
20210924181505 72 113 2.0 7.0 0.00 0.00 0.00 48 1021.2
20210924180002 72 326 3.0 6.0 0.00 0.00 0.00 48 1021.5
20210924174630 73 204 2.0 4.0 0.00 0.00 0.00 44 1021.6
20210924173107 72 121 2.0 4.0 0.00 0.00 0.00 45 1021.8
20210924171655 71 340 3.0 8.0 0.00 0.00 0.00 44 1022.0
20210924170104 72 81 1.0 4.0 0.00 0.00 0.00 43 1022.0
20210924164625 71 116 1.0 5.0 0.00 0.00 0.00 46 1022.1
20210924163148 70 114 2.0 6.0 0.00 0.00 0.00 48 1022.3
20210924161633 70 103 2.0 4.0 0.00 0.00 0.00 47 1022.4
20210924160126 69 113 2.0 6.0 0.00 0.00 0.00 48 1022.4
20210924154612 68 101 1.0 5.0 0.00 0.00 0.00 51 1022.5
20210924153100 67 100 2.0 8.0 0.00 0.00 0.00 55 1022.6
20210924151550 66 61 1.0 6.0 0.00 0.00 0.00 56 1022.6
20210924150049 66 86 2.0 5.0 0.00 0.00 0.00 56 1022.6
20210924144604 63 80 2.0 4.0 0.00 0.00 0.00 64 1022.5
20210924143051 60 92 0.0 0.0 0.00 0.00 0.00 79 1022.6
20210924141547 57 101 0.0 1.0 0.00 0.00 0.00 88 1022.7
20210924140020 55 28 0.0 2.0 0.00 0.00 0.00 94 1022.7
20210924134552 53 294 0.0 0.0 0.00 0.00 0.00 98 1022.6
20210924133022 52 348 0.0 0.0 0.00 0.00 0.00 98 1022.4
20210924131508 51 348 0.0 0.0 0.00 0.00 0.00 98 1022.5
20210924130009 50 348 0.0 0.0 0.00 0.00 0.00 98 1022.4
20210924124510 49 348 0.0 2.0 0.00 0.00 0.00 98 1022.4
20210924123005 48 348 0.0 0.0 0.00 0.00 0.00 98 1022.4
20210924121502 48 348 0.0 0.0 0.00 0.00 0.00 97 1022.2
20210924120132 48 348 0.0 0.0 0.00 0.00 0.00 97 1021.9
20210924114635 47 348 0.0 0.0 0.00 0.00 0.00 97 1021.7
20210924113304 48 348 0.0 0.0 0.00 0.00 0.00 97 1021.5
20210924111625 48 348 0.0 0.0 0.00 0.00 0.00 97 1021.2
20210924110138 48 348 0.0 1.0 0.00 0.00 0.00 97 1021.1
20210924104626 48 348 0.0 0.0 0.00 0.00 0.00 97 1020.9
20210924103133 48 348 0.0 0.0 0.00 0.00 0.00 97 1020.8
20210924101614 48 348 0.0 0.0 0.00 0.00 0.00 97 1020.5
20210924100154 49 348 0.0 1.0 0.00 0.00 0.00 97 1020.5
20210924094551 49 348 0.0 0.0 0.00 0.00 0.00 97 1020.5
20210924093111 49 348 0.0 0.0 0.00 0.00 0.00 97 1020.4
20210924083102 49 348 0.0 0.0 0.00 0.00 0.00 97 1019.8
20210924081549 50 348 0.0 0.0 0.00 0.00 0.00 97 1019.9
20210924080054 50 348 0.0 0.0 0.00 0.00 0.00 97 1020.1
20210924074604 50 348 0.0 0.0 0.00 0.00 0.00 97 1020.2
20210924073109 50 348 0.0 0.0 0.00 0.00 0.00 96 1020.3
20210924071536 50 348 0.0 0.0 0.00 0.00 0.00 97 1020.3
20210924070036 50 348 0.0 0.0 0.00 0.00 0.00 96 1020.4
20210924064531 51 348 0.0 0.0 0.00 0.00 0.00 97 1020.4
20210924063023 51 348 0.0 0.0 0.00 0.00 0.00 96 1020.4
20210924061530 51 348 0.0 0.0 0.00 0.00 0.00 96 1020.5
20210924060030 51 348 0.0 0.0 0.00 0.00 0.00 96 1020.4
20210924054516 52 348 0.0 0.0 0.00 0.00 0.00 96 1020.5
20210924053015 52 348 0.0 0.0 0.00 0.00 0.00 96 1020.5
20210924051521 52 348 0.0 0.0 0.00 0.00 0.00 96 1020.4
20210924050010 52 348 0.0 0.0 0.00 0.00 0.00 96 1020.6
20210924044510 53 348 0.0 0.0 0.00 0.00 0.00 96 1020.7
20210924043038 53 348 0.0 0.0 0.00 0.00 0.00 95 1020.7
20210924041508 53 348 0.0 0.0 0.00 0.00 0.00 95 1020.7
20210924040015 54 348 0.0 0.0 0.00 0.00 0.00 95 1020.6
20210924034514 54 348 0.0 0.0 0.00 0.00 0.00 95 1020.3
20210924033028 54 348 0.0 0.0 0.00 0.00 0.00 95 1020.4
20210924031516 54 348 0.0 0.0 0.00 0.00 0.00 94 1020.1
20210924030013 55 348 0.0 0.0 0.00 0.00 0.00 94 1020.1
20210924024505 55 348 0.0 1.0 0.00 0.00 0.00 93 1020.0
20210924023005 55 348 0.0 0.0 0.00 0.00 0.00 92 1019.9
20210924021507 56 348 0.0 0.0 0.00 0.00 0.00 92 1019.8
20210924020003 56 348 0.0 0.0 0.00 0.00 0.00 91 1019.8
20210924014512 57 348 0.0 0.0 0.00 0.00 0.00 90 1019.7
20210924013007 57 348 0.0 0.0 0.00 0.00 0.00 89 1019.5
20210924011503 58 348 0.0 1.0 0.00 0.00 0.00 88 1019.4
20210924010001 59 348 0.0 1.0 0.00 0.00 0.00 86 1019.3
20210924004501 59 348 0.0 1.0 0.00 0.00 0.00 84 1019.2
20210924003248 60 348 0.0 0.0 0.00 0.00 0.00 82 1019.1
20210924003028 61 348 0.0 0.0 0.00 0.00 0.00 81 1019.1
20210924001711 62 348 0.0 0.0 0.00 0.00 0.00 78 1018.9
20210924000127 63 348 0.0 0.0 0.00 0.00 0.00 76 1018.9
20210923234625 64 348 0.0 0.0 0.00 0.00 0.00 71 1018.8
20210923233155 65 348 0.0 0.0 0.00 0.00 0.00 68 1018.8
20210923231616 67 348 0.0 1.0 0.00 0.00 0.00 62 1018.8
20210923230156 67 342 1.0 5.0 0.00 0.00 0.00 58 1018.6
20210923224719 68 342 2.0 5.0 0.00 0.00 0.00 56 1018.6
20210923223154 68 44 2.0 5.0 0.00 0.00 0.00 56 1018.5
20210923221644 69 20 4.0 9.0 0.00 0.00 0.00 55 1018.4
20210923220315 69 23 4.0 9.0 0.00 0.00 0.00 53 1018.4
20210923214650 69 44 5.0 9.0 0.00 0.00 0.00 52 1018.4
20210923213214 70 16 1.0 9.0 0.00 0.00 0.00 53 1018.4